Location: Krasnoyarskiy Pitomnik
(51.1333°N, 71.6167°E)
Time: 10:21:43
(UTC+00:00)

Nadezhda 1 Rocket - Pass Details

Date: 22 October 2021
Orbit: 942 x 1004 km, 83.0° (Epoch: 07 December)

Event Time Altitude Azimuth Distance (km) Brightness Sun altitude
Exits shadow 22:12:27 55° 46° (NE) 1,124 4.4 -34.1°
Drops below altitude 10° 22:17:23 10° 14° (NNE) 2,675 6.7 -33.4°
Sets 22:19:54 0° 12° (NNE) 3,628 7.5 -33.0°
